User: anonymous   Login
Location: Newark
(49.4642°N, 2.1122°E)
Time: 17:02:59
(UTC+00:00)
Language:

FO-29 - Orbit

View from above orbital plane
View from above orbital plane
View from above satellite
View from above satellite

Ground track
Ground track

The orbit data is extracted from the following two-line orbital elements,

1 24278U 96046B   20184.84371233 -.00000016 +00000-0 +21655-4 0  9995
2 24278 098.5853 292.6595 0349935 335.1606 023.3033 13.53097744178966
Epoch (UTC): 02 July 2020 20:14:56
Eccentricity: 0.0349935
inclination: 98.5853°
perigee height: 800 km
apogee height: 1321 km
right ascension of ascending node: 292.6595°
argument of perigee: 335.1606°
revolutions per day: 13.53097744
mean anomaly at epoch: 23.3033°
orbit number at epoch: 17896

The dashed part of the orbit path shows where the satellite is in the earth's shadow,  

DLR